Location: Caltech
(34.1382°N, 118.1253°W)
Time: 11:52:12
(UTC-08:00)

Cosmos 1833 - Visible Passes

Search period start: 23 January 2018 00:00
Search period end: 02 February 2018 00:00
Orbit: 827 x 872 km, 70.9° (Epoch: 23 January)

Date Brightness Start Highest point End Pass type
(mag) Time Alt. Az. Time Alt. Az. Time Alt. Az.
26 Jan 6.5 06:16:30 10° N 06:20:51 21° ENE 06:25:11 10° ESE visible
27 Jan 6.6 06:03:47 10° N 06:08:06 21° ENE 06:12:25 10° ESE visible
28 Jan 6.6 05:51:03 10° N 05:55:22 21° ENE 05:59:38 10° ESE visible
29 Jan 6.6 05:38:20 10° N 05:42:36 21° ENE 05:46:52 10° ESE visible
30 Jan 6.6 05:25:36 10° N 05:29:52 21° ENE 05:34:05 10° ESE visible
31 Jan 6.6 05:12:53 10° N 05:17:07 20° ENE 05:21:20 10° ESE visible
31 Jan 6.5 20:00:25 10° SSW 20:00:54 13° SSW 20:00:54 13° SSW visible
01 Feb 6.6 05:00:09 10° N 05:04:21 20° ENE 05:08:33 10° ESE visible
01 Feb 5.7 19:47:40 10° SSW 19:49:52 25° S 19:49:52 25° S visible
